Time,TemperatureF,DewpointF,PressureIn,WindDirection,WindDirectionDegrees,WindSpeedMPH,WindSpeedGustMPH,Humidity,HourlyPrecipIn,Conditions,Clouds,dailyrainin,SoftwareType,DateUTC
2013-09-24 00:14:00,53.0,51.0,-100.00,NNW,328,1.0,2.0,96,0.00,,,0.00,,2013-09-24 04:14:00,
2013-09-24 00:24:00,53.0,51.0,-100.00,NNW,328,1.0,2.0,96,0.00,,,0.00,,2013-09-24 04:24:00,
2013-09-24 00:44:00,53.0,52.0,-100.00,NW,322,1.0,1.0,96,0.00,,,0.00,,2013-09-24 04:44:00,
2013-09-24 00:54:00,53.0,52.0,-100.00,North,352,1.0,1.0,96,0.00,,,0.00,,2013-09-24 04:54:00,
2013-09-24 01:13:00,53.0,52.0,-100.00,North,350,0.0,1.0,96,0.00,,,0.00,,2013-09-24 05:13:00,
2013-09-24 01:23:00,53.0,52.0,-100.00,North,350,0.0,1.0,96,0.00,,,0.00,,2013-09-24 05:23:00,
2013-09-24 01:43:00,54.0,53.0,-100.00,NNW,332,0.0,1.0,96,0.00,,,0.00,,2013-09-24 05:43:00,
2013-09-24 01:53:00,54.0,53.0,-100.00,NNW,347,1.0,2.0,96,0.00,,,0.00,,2013-09-24 05:53:00,
2013-09-24 02:13:00,54.0,53.0,-100.00,NNW,328,1.0,1.0,96,0.00,,,0.00,,2013-09-24 06:13:00,
2013-09-24 02:22:00,54.0,53.0,-100.00,NNW,328,1.0,1.0,96,0.00,,,0.00,,2013-09-24 06:22:00,
2013-09-24 02:42:00,54.0,53.0,-100.00,West,263,0.0,1.0,95,0.00,,,0.00,,2013-09-24 06:42:00,
2013-09-24 02:52:00,54.0,53.0,-100.00,SSW,205,0.0,0.0,95,0.00,,,0.00,,2013-09-24 06:52:00,
2013-09-24 03:03:00,54.0,53.0,-100.00,SSW,205,0.0,0.0,95,0.00,,,0.00,,2013-09-24 07:03:00,
2013-09-24 03:22:00,54.0,53.0,-100.00,SSW,205,1.0,2.0,95,0.00,,,0.00,,2013-09-24 07:22:00,
2013-09-24 03:43:00,54.0,53.0,-100.00,SSW,195,0.0,1.0,96,0.00,,,0.00,,2013-09-24 07:43:00,
2013-09-24 03:52:00,54.0,53.0,-100.00,West,278,0.0,0.0,96,0.00,,,0.00,,2013-09-24 07:52:00,
2013-09-24 04:02:00,54.0,53.0,-100.00,West,278,0.0,0.0,96,0.00,,,0.00,,2013-09-24 08:02:00,
2013-09-24 04:12:00,55.0,51.0,-100.00,SSW,196,2.0,2.0,88,0.00,,,0.00,,2013-09-24 08:12:00,
2013-09-24 04:23:00,54.0,53.0,-100.00,South,186,1.0,2.0,96,0.00,,,0.00,,2013-09-24 08:23:00,
2013-09-24 04:42:00,54.0,52.0,-100.00,South,169,2.0,2.0,92,0.00,,,0.00,,2013-09-24 08:42:00,
2013-09-24 04:52:00,55.0,51.0,-100.00,SSW,196,2.0,2.0,88,0.00,,,0.00,,2013-09-24 08:52:00,
2013-09-24 05:02:00,55.0,51.0,-100.00,SSW,196,2.0,2.0,88,0.00,,,0.00,,2013-09-24 09:02:00,
2013-09-24 05:43:00,54.0,51.0,-100.00,SSW,199,1.0,2.0,88,0.00,,,0.00,,2013-09-24 09:43:00,
2013-09-24 05:53:00,54.0,50.0,-100.00,SSW,195,2.0,2.0,85,0.00,,,0.00,,2013-09-24 09:53:00,
2013-09-24 06:03:00,54.0,50.0,-100.00,SSW,195,2.0,2.0,85,0.00,,,0.00,,2013-09-24 10:03:00,
2013-09-24 06:23:00,53.0,51.0,-100.00,SW,226,1.0,2.0,91,0.00,,,0.00,,2013-09-24 10:23:00,
2013-09-24 06:42:00,53.0,50.0,-100.00,SW,227,1.0,2.0,90,0.00,,,0.00,,2013-09-24 10:42:00,
2013-09-24 06:53:00,54.0,50.0,-100.00,SW,216,2.0,4.0,87,0.00,,,0.00,,2013-09-24 10:53:00,
2013-09-24 07:03:00,54.0,50.0,-100.00,SW,216,2.0,4.0,87,0.00,,,0.00,,2013-09-24 11:03:00,
2013-09-24 07:12:00,54.0,50.0,-100.00,South,188,2.0,3.0,86,0.00,,,0.00,,2013-09-24 11:12:00,
2013-09-24 07:22:00,53.0,50.0,-100.00,SSW,198,2.0,4.0,88,0.00,,,0.00,,2013-09-24 11:22:00,
2013-09-24 07:42:00,53.0,50.0,-100.00,SSW,202,1.0,2.0,88,0.00,,,0.00,,2013-09-24 11:42:00,
2013-09-24 07:52:00,54.0,50.0,-100.00,South,188,2.0,3.0,86,0.00,,,0.00,,2013-09-24 11:52:00,
2013-09-24 08:01:00,54.0,50.0,-100.00,South,188,2.0,3.0,86,0.00,,,0.00,,2013-09-24 12:01:00,
2013-09-24 08:22:00,54.0,50.0,-100.00,SSE,161,2.0,2.0,87,0.00,,,0.00,,2013-09-24 12:22:00,
2013-09-24 08:42:00,54.0,49.0,-100.00,South,181,2.0,4.0,83,0.00,,,0.00,,2013-09-24 12:42:00,
2013-09-24 08:52:00,55.0,49.0,-100.00,South,181,3.0,4.0,80,0.00,,,0.00,,2013-09-24 12:52:00,
2013-09-24 09:22:00,55.0,51.0,-100.00,South,186,3.0,4.0,84,0.00,,,0.00,,2013-09-24 13:22:00,
2013-09-24 09:42:00,56.0,51.0,-100.00,South,189,2.0,3.0,84,0.00,,,0.00,,2013-09-24 13:42:00,
2013-09-24 09:52:00,56.0,50.0,-100.00,South,185,6.0,8.0,80,0.00,,,0.00,,2013-09-24 13:52:00,
2013-09-24 10:02:00,56.0,50.0,-100.00,South,185,6.0,8.0,80,0.00,,,0.00,,2013-09-24 14:02:00,
2013-09-24 10:21:00,56.0,49.0,-100.00,South,179,5.0,6.0,76,0.00,,,0.00,,2013-09-24 14:21:00,
2013-09-24 10:42:00,57.0,49.0,-100.00,South,185,6.0,9.0,75,0.00,,,0.00,,2013-09-24 14:42:00,
2013-09-24 10:52:00,58.0,50.0,-100.00,SSW,208,6.0,9.0,74,0.00,,,0.00,,2013-09-24 14:52:00,
2013-09-24 11:01:00,58.0,50.0,-100.00,SSW,208,6.0,9.0,74,0.00,,,0.00,,2013-09-24 15:01:00,
2013-09-24 11:22:00,58.0,50.0,-100.00,South,176,6.0,9.0,72,0.00,,,0.00,,2013-09-24 15:22:00,
2013-09-24 11:31:00,63.0,52.0,-100.00,ESE,121,3.0,4.0,68,0.00,,,0.00,,2013-09-24 15:31:00,
2013-09-24 11:43:00,60.0,53.0,-100.00,South,179,6.0,9.0,77,0.00,,,0.00,,2013-09-24 15:43:00,
2013-09-24 11:53:00,62.0,52.0,-100.00,SSW,209,5.0,8.0,70,0.00,,,0.00,,2013-09-24 15:53:00,
2013-09-24 12:13:00,63.0,52.0,-100.00,ESE,121,3.0,4.0,68,0.00,,,0.00,,2013-09-24 16:13:00,
2013-09-24 12:23:00,63.0,52.0,-100.00,ESE,121,3.0,4.0,68,0.00,,,0.00,,2013-09-24 16:23:00,
2013-09-24 12:52:00,66.0,54.0,-100.00,ENE,58,1.0,3.0,64,0.00,,,0.00,,2013-09-24 16:52:00,
2013-09-24 12:53:00,64.0,54.0,-100.00,SSE,161,4.0,6.0,70,0.00,,,0.00,,2013-09-24 16:53:00,
2013-09-24 13:13:00,65.0,54.0,-100.00,South,184,7.0,9.0,67,0.00,,,0.00,,2013-09-24 17:13:00,
2013-09-24 13:23:00,65.0,54.0,-100.00,South,184,7.0,9.0,67,0.00,,,0.00,,2013-09-24 17:23:00,
2013-09-24 13:32:00,70.0,56.0,-100.00,South,189,2.0,5.0,60,0.00,,,0.00,,2013-09-24 17:32:00,
2013-09-24 13:43:00,66.0,54.0,-100.00,ENE,58,1.0,3.0,64,0.00,,,0.00,,2013-09-24 17:43:00,
2013-09-24 14:22:00,70.0,56.0,-100.00,South,189,2.0,5.0,60,0.00,,,0.00,,2013-09-24 18:22:00,
2013-09-24 14:53:00,71.0,56.0,-100.00,South,169,4.0,6.0,59,0.00,,,0.00,,2013-09-24 18:53:00,
2013-09-24 15:12:00,71.0,56.0,-100.00,South,181,4.0,6.0,57,0.00,,,0.00,,2013-09-24 19:12:00,
2013-09-24 15:22:00,71.0,56.0,-100.00,South,181,4.0,6.0,57,0.00,,,0.00,,2013-09-24 19:22:00,
2013-09-24 15:42:00,72.0,56.0,-100.00,SSW,206,3.0,6.0,55,0.00,,,0.00,,2013-09-24 19:42:00,
2013-09-24 15:52:00,73.0,57.0,-100.00,SSE,165,4.0,5.0,57,0.00,,,0.00,,2013-09-24 19:52:00,
2013-09-24 16:03:00,73.0,57.0,-100.00,SSE,165,4.0,5.0,57,0.00,,,0.00,,2013-09-24 20:03:00,
2013-09-24 16:22:00,72.0,56.0,-100.00,SW,220,4.0,6.0,57,0.00,,,0.00,,2013-09-24 20:22:00,
2013-09-24 16:42:00,72.0,59.0,-100.00,SSE,162,4.0,6.0,63,0.00,,,0.00,,2013-09-24 20:42:00,
2013-09-24 16:52:00,73.0,59.0,-100.00,South,171,6.0,9.0,61,0.00,,,0.00,,2013-09-24 20:52:00,
2013-09-24 17:12:00,73.0,57.0,-100.00,WSW,240,3.0,7.0,58,0.00,,,0.00,,2013-09-24 21:12:00,
2013-09-24 17:22:00,73.0,57.0,-100.00,WSW,240,3.0,7.0,58,0.00,,,0.00,,2013-09-24 21:22:00,
2013-09-24 17:43:00,72.0,58.0,-100.00,SSE,147,6.0,7.0,61,0.00,,,0.00,,2013-09-24 21:43:00,
2013-09-24 17:54:00,72.0,57.0,-100.00,SSE,160,6.0,8.0,59,0.00,,,0.00,,2013-09-24 21:54:00,
2013-09-24 18:13:00,72.0,59.0,-100.00,SSE,160,5.0,6.0,63,0.00,,,0.00,,2013-09-24 22:13:00,
2013-09-24 18:24:00,72.0,59.0,-100.00,SSE,160,5.0,6.0,63,0.00,,,0.00,,2013-09-24 22:24:00,
2013-09-24 18:43:00,72.0,58.0,-100.00,South,176,5.0,6.0,62,0.00,,,0.00,,2013-09-24 22:43:00,
2013-09-24 18:53:00,71.0,58.0,-100.00,SSE,165,4.0,6.0,63,0.00,,,0.00,,2013-09-24 22:53:00,
2013-09-24 19:13:00,69.0,58.0,-100.00,South,169,5.0,6.0,67,0.00,,,0.00,,2013-09-24 23:13:00,
2013-09-24 19:22:00,69.0,58.0,-100.00,South,169,5.0,6.0,67,0.00,,,0.00,,2013-09-24 23:22:00,
2013-09-24 19:43:00,68.0,59.0,-100.00,SSE,161,6.0,9.0,72,0.00,,,0.00,,2013-09-24 23:43:00,
2013-09-24 19:53:00,66.0,59.0,-100.00,South,178,4.0,4.0,77,0.00,,,0.00,,2013-09-24 23:53:00,
2013-09-24 20:12:00,65.0,59.0,-100.00,South,184,3.0,4.0,80,0.00,,,0.00,,2013-09-25 00:12:00,
2013-09-24 20:22:00,65.0,59.0,-100.00,South,184,3.0,4.0,80,0.00,,,0.00,,2013-09-25 00:22:00,
2013-09-24 20:52:00,62.0,58.0,-100.00,WSW,244,1.0,2.0,86,0.00,,,0.00,,2013-09-25 00:52:00,
2013-09-24 21:02:00,62.0,58.0,-100.00,WSW,244,1.0,2.0,86,0.00,,,0.00,,2013-09-25 01:02:00,
2013-09-24 21:22:00,62.0,58.0,-100.00,SW,236,0.0,1.0,86,0.00,,,0.00,,2013-09-25 01:22:00,
2013-09-24 21:42:00,61.0,58.0,-100.00,WSW,241,1.0,2.0,90,0.00,,,0.00,,2013-09-25 01:42:00,
2013-09-24 21:52:00,60.0,57.0,-100.00,West,260,0.0,0.0,90,0.00,,,0.00,,2013-09-25 01:52:00,
2013-09-24 22:12:00,59.0,57.0,-100.00,North,1,0.0,0.0,93,0.00,,,0.00,,2013-09-25 02:12:00,
2013-09-24 22:22:00,59.0,57.0,-100.00,North,1,0.0,0.0,93,0.00,,,0.00,,2013-09-25 02:22:00,
2013-09-24 22:42:00,58.0,56.0,-100.00,NNW,342,0.0,0.0,93,0.00,,,0.00,,2013-09-25 02:42:00,
2013-09-24 22:52:00,57.0,56.0,-100.00,NNW,330,2.0,2.0,94,0.00,,,0.00,,2013-09-25 02:52:00,
2013-09-24 23:11:00,57.0,56.0,-100.00,NNW,337,1.0,1.0,94,0.00,,,0.00,,2013-09-25 03:11:00,
2013-09-24 23:23:00,57.0,56.0,-100.00,NNW,337,1.0,1.0,94,0.00,,,0.00,,2013-09-25 03:23:00,
2013-09-24 23:45:00,57.0,55.0,-100.00,NNW,337,0.0,0.0,95,0.00,,,0.00,,2013-09-25 03:45:00,
2013-09-24 23:54:00,57.0,56.0,-100.00,WNW,282,0.0,1.0,95,0.00,,,0.00,,2013-09-25 03:54:00,